Time,TemperatureF,DewpointF,PressureIn,WindDirection,WindDirectionDegrees,WindSpeedMPH,WindSpeedGustMPH,Humidity,HourlyPrecipIn,Conditions,Clouds,dailyrainin,SoftwareType,DateUTC
2013-09-22 00:09:00,67.6,66.0,29.70,SE,146,4.0,6.0,95,0.00,,,0.00,weatherlink.com 1.10,2013-09-22 04:09:00,
2013-09-22 00:24:00,67.6,66.0,29.70,SE,136,4.0,6.0,95,0.00,,,0.00,weatherlink.com 1.10,2013-09-22 04:24:00,
2013-09-22 00:39:00,67.4,66.0,29.69,SE,145,5.0,6.0,95,0.00,,,0.00,weatherlink.com 1.10,2013-09-22 04:39:00,
2013-09-22 00:54:00,67.2,66.0,29.69,SE,140,4.0,6.0,96,0.00,,,0.00,weatherlink.com 1.10,2013-09-22 04:54:00,
2013-09-22 01:09:00,67.2,66.0,29.68,SE,135,3.0,5.0,96,0.00,,,0.00,weatherlink.com 1.10,2013-09-22 05:09:00,
2013-09-22 01:24:00,67.6,67.0,29.68,SE,138,4.0,5.0,96,0.00,,,0.00,weatherlink.com 1.10,2013-09-22 05:24:00,
2013-09-22 01:39:00,67.8,67.0,29.66,SE,126,3.0,5.0,96,0.00,,,0.00,weatherlink.com 1.10,2013-09-22 05:39:00,
2013-09-22 01:54:00,67.7,67.0,29.66,SE,129,4.0,5.0,96,0.00,,,0.00,weatherlink.com 1.10,2013-09-22 05:54:00,
2013-09-22 02:09:00,67.7,67.0,29.65,ESE,103,5.0,6.0,96,0.00,,,0.00,weatherlink.com 1.10,2013-09-22 06:09:00,
2013-09-22 02:24:00,67.5,66.0,29.65,East,100,5.0,6.0,96,0.00,,,0.00,weatherlink.com 1.10,2013-09-22 06:24:00,
2013-09-22 02:39:00,67.7,67.0,29.64,ESE,106,6.0,6.0,97,0.00,,,0.00,weatherlink.com 1.10,2013-09-22 06:39:00,
2013-09-22 02:54:00,67.9,67.0,29.64,East,97,6.0,7.0,97,0.00,,,0.00,weatherlink.com 1.10,2013-09-22 06:54:00,
2013-09-22 03:09:00,68.0,67.0,29.63,ESE,111,4.0,6.0,97,0.00,,,0.00,weatherlink.com 1.10,2013-09-22 07:09:00,
2013-09-22 03:24:00,68.1,67.0,29.62,ESE,120,5.0,6.0,97,0.00,,,0.00,weatherlink.com 1.10,2013-09-22 07:24:00,
2013-09-22 03:39:00,68.2,67.0,29.62,SE,128,4.0,5.0,97,0.00,,,0.00,weatherlink.com 1.10,2013-09-22 07:39:00,
2013-09-22 03:54:00,68.2,67.0,29.61,SE,142,4.0,7.0,97,0.00,,,0.00,weatherlink.com 1.10,2013-09-22 07:54:00,
2013-09-22 04:09:00,68.3,68.0,29.62,SW,226,8.0,12.0,97,0.00,,,0.00,weatherlink.com 1.10,2013-09-22 08:09:00,
2013-09-22 04:24:00,67.8,67.0,29.62,SSE,160,7.0,12.0,96,0.00,,,0.00,weatherlink.com 1.10,2013-09-22 08:24:00,
2013-09-22 04:39:00,67.5,66.0,29.61,SSW,194,5.0,7.0,96,0.02,,,0.02,weatherlink.com 1.10,2013-09-22 08:39:00,
2013-09-22 04:55:00,-999.0,-99.9,29.63,North,-999,-999.0,-999.0,-999,0.02,,,0.02,weatherlink.com 1.10,2013-09-22 08:55:00,
2013-09-22 05:10:00,-999.0,-99.9,29.63,North,-999,-999.0,-999.0,-999,0.02,,,0.02,weatherlink.com 1.10,2013-09-22 09:10:00,
2013-09-22 05:25:00,-999.0,-99.9,29.63,North,-999,-999.0,-999.0,-999,0.02,,,0.02,weatherlink.com 1.10,2013-09-22 09:25:00,
2013-09-22 05:40:00,-999.0,-99.9,29.64,North,-999,-999.0,-999.0,-999,0.00,,,0.02,weatherlink.com 1.10,2013-09-22 09:40:00,
2013-09-22 05:55:00,-999.0,-99.9,29.63,North,-999,-999.0,-999.0,-999,0.00,,,0.02,weatherlink.com 1.10,2013-09-22 09:55:00,
2013-09-22 06:10:00,-999.0,-99.9,29.64,North,-999,-999.0,-999.0,-999,0.00,,,0.02,weatherlink.com 1.10,2013-09-22 10:10:00,
2013-09-22 06:25:00,-999.0,-99.9,29.64,North,-999,-999.0,-999.0,-999,0.00,,,0.02,weatherlink.com 1.10,2013-09-22 10:25:00,
2013-09-22 06:40:00,-999.0,-99.9,29.64,North,-999,-999.0,-999.0,-999,0.00,,,0.02,weatherlink.com 1.10,2013-09-22 10:40:00,
2013-09-22 07:10:00,-999.0,-99.9,29.64,North,-999,-999.0,-999.0,-999,0.00,,,0.02,weatherlink.com 1.10,2013-09-22 11:10:00,
2013-09-22 07:25:00,-999.0,-99.9,29.64,North,-999,-999.0,-999.0,-999,0.00,,,0.02,weatherlink.com 1.10,2013-09-22 11:25:00,
2013-09-22 07:40:00,-999.0,-99.9,29.65,North,-999,-999.0,-999.0,-999,0.00,,,0.02,weatherlink.com 1.10,2013-09-22 11:40:00,
2013-09-22 07:55:00,-999.0,-99.9,29.65,North,-999,-999.0,-999.0,-999,0.00,,,0.02,weatherlink.com 1.10,2013-09-22 11:55:00,
2013-09-22 08:10:00,-999.0,-99.9,29.65,North,-999,-999.0,-999.0,-999,0.00,,,0.02,weatherlink.com 1.10,2013-09-22 12:10:00,
2013-09-22 08:26:00,-999.0,-99.9,29.66,North,-999,-999.0,-999.0,-999,0.00,,,0.02,weatherlink.com 1.10,2013-09-22 12:26:00,
2013-09-22 08:41:00,-999.0,-99.9,29.66,North,-999,-999.0,-999.0,-999,0.00,,,0.02,weatherlink.com 1.10,2013-09-22 12:41:00,
2013-09-22 08:56:00,-999.0,-99.9,29.66,North,-999,-999.0,-999.0,-999,0.00,,,0.02,weatherlink.com 1.10,2013-09-22 12:56:00,
2013-09-22 09:11:00,-999.0,-99.9,29.66,North,-999,-999.0,-999.0,-999,0.00,,,0.02,weatherlink.com 1.10,2013-09-22 13:11:00,
2013-09-22 09:26:00,-999.0,-99.9,29.67,North,-999,-999.0,-999.0,-999,0.00,,,0.02,weatherlink.com 1.10,2013-09-22 13:26:00,
2013-09-22 09:41:00,-999.0,-99.9,29.68,North,-999,-999.0,-999.0,-999,0.00,,,0.02,weatherlink.com 1.10,2013-09-22 13:41:00,
2013-09-22 09:56:00,-999.0,-99.9,29.68,North,-999,-999.0,-999.0,-999,0.00,,,0.02,weatherlink.com 1.10,2013-09-22 13:56:00,
2013-09-22 10:11:00,-999.0,-99.9,29.68,North,-999,-999.0,-999.0,-999,0.00,,,0.02,weatherlink.com 1.10,2013-09-22 14:11:00,
2013-09-22 10:26:00,-999.0,-99.9,29.68,North,-999,-999.0,-999.0,-999,0.00,,,0.02,weatherlink.com 1.10,2013-09-22 14:26:00,
2013-09-22 10:41:00,-999.0,-99.9,29.68,North,-999,-999.0,-999.0,-999,0.00,,,0.02,weatherlink.com 1.10,2013-09-22 14:41:00,
2013-09-22 10:56:00,-999.0,-99.9,29.68,North,-999,-999.0,-999.0,-999,0.00,,,0.02,weatherlink.com 1.10,2013-09-22 14:56:00,
2013-09-22 11:11:00,-999.0,-99.9,29.67,North,-999,-999.0,-999.0,-999,0.00,,,0.02,weatherlink.com 1.10,2013-09-22 15:11:00,
2013-09-22 11:26:00,-999.0,-99.9,29.68,North,-999,-999.0,-999.0,-999,0.00,,,0.02,weatherlink.com 1.10,2013-09-22 15:26:00,
2013-09-22 11:41:00,-999.0,-99.9,29.68,North,-999,-999.0,-999.0,-999,0.00,,,0.02,weatherlink.com 1.10,2013-09-22 15:41:00,
2013-09-22 11:57:00,-999.0,-99.9,29.68,North,-999,-999.0,-999.0,-999,0.00,,,0.02,weatherlink.com 1.10,2013-09-22 15:57:00,
2013-09-22 12:12:00,-999.0,-99.9,29.68,North,-999,-999.0,-999.0,-999,0.00,,,0.02,weatherlink.com 1.10,2013-09-22 16:12:00,
2013-09-22 12:27:00,-999.0,-99.9,29.68,North,-999,-999.0,-999.0,-999,0.00,,,0.02,weatherlink.com 1.10,2013-09-22 16:27:00,
2013-09-22 12:42:00,-999.0,-99.9,29.68,North,-999,-999.0,-999.0,-999,0.00,,,0.02,weatherlink.com 1.10,2013-09-22 16:42:00,
2013-09-22 12:57:00,66.9,60.0,29.67,SSW,205,1.0,5.0,79,0.00,,,0.02,weatherlink.com 1.10,2013-09-22 16:57:00,
2013-09-22 13:12:00,68.2,61.0,29.67,West,276,1.0,6.0,78,0.00,,,0.02,weatherlink.com 1.10,2013-09-22 17:12:00,
2013-09-22 13:27:00,68.4,60.0,29.66,SW,228,4.0,7.0,75,0.00,,,0.02,weatherlink.com 1.10,2013-09-22 17:27:00,
2013-09-22 13:42:00,69.6,61.0,29.66,SSW,212,2.0,7.0,75,0.00,,,0.02,weatherlink.com 1.10,2013-09-22 17:42:00,
2013-09-22 13:57:00,69.2,61.0,29.67,WSW,243,3.0,5.0,75,0.00,,,0.02,weatherlink.com 1.10,2013-09-22 17:57:00,
2013-09-22 14:12:00,68.9,61.0,29.67,WSW,240,2.0,5.0,75,0.00,,,0.02,weatherlink.com 1.10,2013-09-22 18:12:00,
2013-09-22 14:27:00,69.1,60.0,29.67,SW,225,2.0,8.0,73,0.00,,,0.02,weatherlink.com 1.10,2013-09-22 18:27:00,
2013-09-22 14:42:00,69.6,59.0,29.67,WSW,238,6.0,8.0,69,0.00,,,0.02,weatherlink.com 1.10,2013-09-22 18:42:00,
2013-09-22 14:57:00,69.6,59.0,29.67,SW,219,2.0,6.0,69,0.00,,,0.02,weatherlink.com 1.10,2013-09-22 18:57:00,
2013-09-22 15:12:00,70.2,59.0,29.67,WSW,253,4.0,4.0,67,0.00,,,0.02,weatherlink.com 1.10,2013-09-22 19:12:00,
2013-09-22 15:27:00,68.9,57.0,29.67,WSW,238,4.0,7.0,66,0.00,,,0.02,weatherlink.com 1.10,2013-09-22 19:27:00,
2013-09-22 15:42:00,68.5,57.0,29.67,SE,131,1.0,6.0,68,0.00,,,0.02,weatherlink.com 1.10,2013-09-22 19:42:00,
2013-09-22 15:57:00,68.9,57.0,29.68,SW,222,3.0,6.0,66,0.00,,,0.02,weatherlink.com 1.10,2013-09-22 19:57:00,
2013-09-22 16:12:00,68.5,55.0,29.68,SW,224,3.0,7.0,63,0.00,,,0.02,weatherlink.com 1.10,2013-09-22 20:12:00,
2013-09-22 16:27:00,68.0,55.0,29.68,SSW,208,3.0,7.0,64,0.00,,,0.02,weatherlink.com 1.10,2013-09-22 20:27:00,
2013-09-22 16:42:00,67.7,56.0,29.68,SW,221,5.0,6.0,66,0.00,,,0.02,weatherlink.com 1.10,2013-09-22 20:42:00,
2013-09-22 16:57:00,66.8,55.0,29.68,SW,232,5.0,7.0,65,0.00,,,0.02,weatherlink.com 1.10,2013-09-22 20:57:00,
2013-09-22 17:12:00,66.2,54.0,29.69,WSW,243,6.0,6.0,65,0.00,,,0.02,weatherlink.com 1.10,2013-09-22 21:12:00,
2013-09-22 17:27:00,65.8,54.0,29.69,SSW,195,3.0,9.0,65,0.00,,,0.02,weatherlink.com 1.10,2013-09-22 21:27:00,
2013-09-22 17:42:00,65.6,54.0,29.70,SW,215,3.0,6.0,67,0.00,,,0.02,weatherlink.com 1.10,2013-09-22 21:42:00,
2013-09-22 17:57:00,64.9,53.0,29.71,SW,231,4.0,6.0,65,0.00,,,0.02,weatherlink.com 1.10,2013-09-22 21:57:00,
2013-09-22 18:12:00,64.1,52.0,29.71,SSE,155,3.0,6.0,64,0.00,,,0.02,weatherlink.com 1.10,2013-09-22 22:12:00,
2013-09-22 18:27:00,63.5,52.0,29.71,SW,225,6.0,9.0,67,0.00,,,0.02,weatherlink.com 1.10,2013-09-22 22:27:00,
2013-09-22 18:42:00,62.7,51.0,29.72,SSW,201,3.0,8.0,66,0.00,,,0.02,weatherlink.com 1.10,2013-09-22 22:42:00,
2013-09-22 18:58:00,61.9,51.0,29.73,SW,229,3.0,7.0,67,0.00,,,0.02,weatherlink.com 1.10,2013-09-22 22:58:00,
2013-09-22 19:13:00,61.3,51.0,29.74,SW,235,4.0,6.0,69,0.00,,,0.02,weatherlink.com 1.10,2013-09-22 23:13:00,
2013-09-22 19:28:00,60.6,50.0,29.75,SW,221,5.0,9.0,68,0.00,,,0.02,weatherlink.com 1.10,2013-09-22 23:28:00,
2013-09-22 19:43:00,59.9,50.0,29.75,SSW,195,2.0,6.0,70,0.00,,,0.02,weatherlink.com 1.10,2013-09-22 23:43:00,
2013-09-22 19:58:00,59.4,50.0,29.76,SE,134,2.0,5.0,71,0.00,,,0.02,weatherlink.com 1.10,2013-09-22 23:58:00,
2013-09-22 20:13:00,59.0,50.0,29.77,South,180,1.0,5.0,72,0.00,,,0.02,weatherlink.com 1.10,2013-09-23 00:13:00,
2013-09-22 20:28:00,58.5,49.0,29.78,SSW,210,4.0,6.0,72,0.00,,,0.02,weatherlink.com 1.10,2013-09-23 00:28:00,
2013-09-22 20:43:00,58.0,49.0,29.78,South,190,3.0,5.0,71,0.00,,,0.02,weatherlink.com 1.10,2013-09-23 00:43:00,
2013-09-22 20:58:00,57.9,48.0,29.79,SSW,213,4.0,8.0,69,0.00,,,0.02,weatherlink.com 1.10,2013-09-23 00:58:00,
2013-09-22 21:13:00,57.8,47.0,29.79,SW,217,3.0,9.0,67,0.00,,,0.02,weatherlink.com 1.10,2013-09-23 01:13:00,
2013-09-22 21:28:00,57.5,47.0,29.80,SE,141,1.0,8.0,68,0.00,,,0.02,weatherlink.com 1.10,2013-09-23 01:28:00,
2013-09-22 21:43:00,57.2,47.0,29.80,SW,236,4.0,8.0,69,0.00,,,0.02,weatherlink.com 1.10,2013-09-23 01:43:00,
2013-09-22 21:58:00,56.8,47.0,29.80,NNW,334,1.0,6.0,70,0.00,,,0.02,weatherlink.com 1.10,2013-09-23 01:58:00,
2013-09-22 22:13:00,56.3,47.0,29.81,SW,222,4.0,8.0,71,0.00,,,0.02,weatherlink.com 1.10,2013-09-23 02:13:00,
2013-09-22 22:28:00,56.0,47.0,29.81,SW,231,3.0,5.0,72,0.00,,,0.02,weatherlink.com 1.10,2013-09-23 02:28:00,
2013-09-22 22:43:00,55.7,47.0,29.82,WSW,246,3.0,9.0,72,0.00,,,0.02,weatherlink.com 1.10,2013-09-23 02:43:00,
2013-09-22 22:58:00,55.3,47.0,29.82,SW,225,3.0,6.0,74,0.00,,,0.02,weatherlink.com 1.10,2013-09-23 02:58:00,
2013-09-22 23:13:00,54.9,47.0,29.83,SSW,203,2.0,5.0,75,0.00,,,0.02,weatherlink.com 1.10,2013-09-23 03:13:00,
2013-09-22 23:28:00,54.6,47.0,29.82,WSW,240,2.0,6.0,75,0.00,,,0.02,weatherlink.com 1.10,2013-09-23 03:28:00,
2013-09-22 23:43:00,54.4,47.0,29.82,SSW,201,4.0,7.0,76,0.00,,,0.02,weatherlink.com 1.10,2013-09-23 03:43:00,
2013-09-22 23:58:00,54.2,47.0,29.82,SSW,210,2.0,7.0,77,0.00,,,0.02,weatherlink.com 1.10,2013-09-23 03:58:00,